GW3424 Weather Reports


Display with metric or nautical units.
time (UTC)temp
F
wind
direction
speed
MPH
gust
MPH
rain 1hr
in
rain 24hr
in
rain mn
in
humidity
%
barometer
mb
20260506033542 72 360 6.0 12.0 0.00 0.00 0.00 27 976.2
20260506033043 72 360 6.0 13.0 0.00 0.00 0.00 27 976.1
20260506032543 72 360 7.0 13.0 0.00 0.00 0.00 27 976.0
20260506032043 72 360 5.0 12.0 0.00 0.00 0.00 27 975.9
20260506031555 72 360 8.0 12.0 0.00 0.00 0.00 27 975.8
20260506031043 73 360 6.0 12.0 0.00 0.00 0.00 27 975.8
20260506030542 73 360 6.0 14.0 0.00 0.00 0.00 27 975.8
20260506030057 73 360 8.0 14.0 0.00 0.00 0.00 27 975.6
20260506025543 73 360 7.0 13.0 0.00 0.00 0.00 27 975.5
20260506025043 73 360 8.0 13.0 0.00 0.00 0.00 27 975.7
20260506024543 73 360 8.0 14.0 0.00 0.00 0.00 26 975.6
20260506024043 73 360 8.0 14.0 0.00 0.00 0.00 26 975.4
20260506023543 73 360 9.0 13.0 0.00 0.00 0.00 26 975.3
20260506023043 74 360 8.0 14.0 0.00 0.00 0.00 26 975.2
20260506022545 73 360 9.0 14.0 0.00 0.00 0.00 26 975.3
20260506022043 74 360 8.0 17.0 0.00 0.00 0.00 25 975.1
20260506021543 74 360 9.0 17.0 0.00 0.00 0.00 25 975.0
20260506021042 74 360 9.0 15.0 0.00 0.00 0.00 25 975.0
20260506020542 74 360 10.0 19.0 0.00 0.00 0.00 25 975.1
20260506020044 74 360 11.0 19.0 0.00 0.00 0.00 26 974.9
20260506015543 74 360 9.0 18.0 0.00 0.00 0.00 26 974.9
20260506015043 74 360 11.0 19.0 0.00 0.00 0.00 26 974.8
20260506014543 75 360 11.0 19.0 0.00 0.00 0.00 25 974.8
20260506014044 75 360 10.0 19.0 0.00 0.00 0.00 25 974.8
20260506013542 75 360 9.0 17.0 0.00 0.00 0.00 25 974.7
20260506013046 75 360 10.0 17.0 0.00 0.00 0.00 25 974.6
20260506012543 75 360 8.0 18.0 0.00 0.00 0.00 24 974.6
20260506012042 75 360 10.0 21.0 0.00 0.00 0.00 24 974.6
20260506011547 75 360 12.0 21.0 0.00 0.00 0.00 24 974.5
20260506011042 75 360 11.0 21.0 0.00 0.00 0.00 24 974.4
20260506010543 75 360 12.0 21.0 0.00 0.00 0.00 25 974.4
20260506010043 75 360 12.0 22.0 0.00 0.00 0.00 25 974.3
20260506005545 76 360 14.0 24.0 0.00 0.00 0.00 24 974.3
20260506005042 76 360 10.0 23.0 0.00 0.00 0.00 24 974.3
20260506004617 76 360 7.0 21.0 0.00 0.00 0.00 25 974.2
20260506004042 76 360 8.0 23.0 0.00 0.00 0.00 25 974.2
20260506003543 75 360 11.0 23.0 0.00 0.00 0.00 25 974.1
20260506003043 75 360 11.0 21.0 0.00 0.00 0.00 26 974.2
20260506002542 75 360 13.0 21.0 0.00 0.00 0.00 26 974.1
20260506002045 75 360 12.0 21.0 0.00 0.00 0.00 26 974.0
20260506001544 76 360 12.0 25.0 0.00 0.00 0.00 26 974.0
20260506001043 76 360 15.0 25.0 0.00 0.00 0.00 26 973.9
20260506000543 76 360 14.0 24.0 0.00 0.00 0.00 26 974.0
20260506000046 76 360 11.0 24.0 0.00 0.00 0.00 26 974.0
20260505235542 77 360 10.0 22.0 0.00 0.00 0.00 25 973.9
20260505235043 77 360 8.0 17.0 0.00 0.00 0.00 25 973.9
20260505234606 77 360 8.0 19.0 0.00 0.00 0.00 25 973.8
20260505234043 77 360 9.0 21.0 0.00 0.00 0.00 25 973.9
20260505233542 77 360 12.0 21.0 0.00 0.00 0.00 25 973.7
20260505233043 77 360 9.0 27.0 0.00 0.00 0.00 25 973.9
20260505232542 77 360 15.0 27.0 0.00 0.00 0.00 25 973.7
20260505232046 78 360 12.0 23.0 0.00 0.00 0.00 25 973.9
20260505231543 77 360 14.0 21.0 0.00 0.00 0.00 25 973.8
20260505231042 77 360 11.0 20.0 0.00 0.00 0.00 25 973.9
20260505230542 76 360 11.0 20.0 0.00 0.00 0.00 26 974.0
20260505230047 77 360 9.0 19.0 0.00 0.00 0.00 26 973.9
20260505225543 77 360 10.0 19.0 0.00 0.00 0.00 26 974.0
20260505225043 76 360 9.0 16.0 0.00 0.00 0.00 26 974.0
20260505224543 77 360 8.0 15.0 0.00 0.00 0.00 26 974.0
20260505224043 77 360 7.0 15.0 0.00 0.00 0.00 26 974.2
20260505223542 77 360 6.0 17.0 0.00 0.00 0.00 26 974.2
20260505223058 77 360 11.0 19.0 0.00 0.00 0.00 26 974.3
20260505222543 77 360 10.0 19.0 0.00 0.00 0.00 26 974.4
20260505222043 76 360 10.0 16.0 0.00 0.00 0.00 27 974.5
20260505221556 76 360 11.0 15.0 0.00 0.00 0.00 27 974.4
20260505221042 76 360 7.0 18.0 0.00 0.00 0.00 26 974.6
20260505220544 76 360 10.0 21.0 0.00 0.00 0.00 26 974.8
20260505220048 77 360 16.0 21.0 0.00 0.00 0.00 26 974.8
20260505215543 77 360 15.0 20.0 0.00 0.00 0.00 25 974.8
20260505215043 77 360 10.0 18.0 0.00 0.00 0.00 27 974.8
20260505214556 76 360 10.0 16.0 0.00 0.00 0.00 28 974.8
20260505214043 76 360 6.0 19.0 0.00 0.00 0.00 28 975.0
20260505213542 76 360 9.0 22.0 0.00 0.00 0.00 28 975.1
20260505213046 77 360 13.0 22.0 0.00 0.00 0.00 28 975.0
20260505212543 77 360 12.0 19.0 0.00 0.00 0.00 28 974.9
20260505212043 76 360 10.0 24.0 0.00 0.00 0.00 28 975.1
20260505211543 76 360 12.0 24.0 0.00 0.00 0.00 28 975.2
20260505211043 75 360 10.0 21.0 0.00 0.00 0.00 28 975.4
20260505210545 75 360 14.0 24.0 0.00 0.00 0.00 29 975.3
20260505210043 75 360 14.0 24.0 0.00 0.00 0.00 29 975.3
20260505205543 76 360 10.0 19.0 0.00 0.00 0.00 29 975.4
20260505205044 76 360 7.0 23.0 0.00 0.00 0.00 28 975.5
20260505204543 77 360 15.0 23.0 0.00 0.00 0.00 28 975.5
20260505204042 77 360 10.0 25.0 0.00 0.00 0.00 27 975.4
20260505203543 77 360 15.0 25.0 0.00 0.00 0.00 27 975.5
20260505203045 77 360 5.0 19.0 0.00 0.00 0.00 27 975.4
20260505202544 76 360 13.0 20.0 0.00 0.00 0.00 27 975.4
20260505202043 76 360 5.0 22.0 0.00 0.00 0.00 28 975.4
20260505201543 76 360 7.0 22.0 0.00 0.00 0.00 28 975.5
20260505201042 77 360 11.0 19.0 0.00 0.00 0.00 27 975.6
20260505200543 77 360 5.0 16.0 0.00 0.00 0.00 27 975.6
20260505200053 76 360 7.0 18.0 0.00 0.00 0.00 28 975.7
20260505195544 77 360 12.0 19.0 0.00 0.00 0.00 27 975.8
20260505195042 76 360 11.0 18.0 0.00 0.00 0.00 28 975.8
20260505194543 76 360 6.0 15.0 0.00 0.00 0.00 29 975.9
20260505194043 75 360 5.0 19.0 0.00 0.00 0.00 29 976.0
20260505193042 75 360 10.0 17.0 0.00 0.00 0.00 31 976.1
20260505192043 75 360 10.0 22.0 0.00 0.00 0.00 31 976.2
20260505191544 75 360 11.0 21.0 0.00 0.00 0.00 32 976.2
20260505190048 74 360 10.0 17.0 0.00 0.00 0.00 33 976.4
20260505185543 74 360 7.0 18.0 0.00 0.00 0.00 33 976.4
20260505184543 73 360 11.0 19.0 0.00 0.00 0.00 34 976.3
20260505183642 73 360 3.0 15.0 0.00 0.00 0.00 35 976.4
20260505182543 73 360 9.0 20.0 0.00 0.00 0.00 35 976.6
20260505180144 72 360 10.0 17.0 0.00 0.00 0.00 35 976.7
20260505175646 73 360 7.0 17.0 0.00 0.00 0.00 36 976.7
20260505175143 73 360 6.0 16.0 0.00 0.00 0.00 37 976.7
20260505174043 71 360 11.0 19.0 0.00 0.00 0.00 41 976.6
20260505173545 71 360 6.0 13.0 0.00 0.00 0.00 42 976.6
20260505173047 71 360 5.0 11.0 0.00 0.00 0.00 42 976.6
20260505172542 70 360 6.0 13.0 0.00 0.00 0.00 43 976.5
20260505172042 70 360 9.0 13.0 0.00 0.00 0.00 43 976.5
20260505171543 70 360 9.0 14.0 0.00 0.00 0.00 43 976.4
20260505171043 70 360 8.0 13.0 0.00 0.00 0.00 43 976.4
20260505170542 70 360 8.0 14.0 0.00 0.00 0.00 42 976.4
20260505170043 70 360 7.0 13.0 0.00 0.00 0.00 40 976.4
20260505165542 70 360 6.0 13.0 0.00 0.00 0.00 40 976.5
20260505165046 69 360 4.0 13.0 0.00 0.00 0.00 40 976.5
20260505164543 69 360 8.0 15.0 0.00 0.00 0.00 41 976.5
20260505164043 68 360 8.0 15.0 0.00 0.00 0.00 42 976.6
20260505163542 68 360 8.0 14.0 0.00 0.00 0.00 43 976.6
20260505163043 68 360 9.0 14.0 0.00 0.00 0.00 43 976.6
20260505162542 68 360 6.0 15.0 0.00 0.00 0.00 42 976.6
20260505162042 68 360 9.0 15.0 0.00 0.00 0.00 43 976.7
20260505161544 68 360 5.0 16.0 0.00 0.00 0.00 44 976.7
20260505161043 68 360 7.0 16.0 0.00 0.00 0.00 46 976.5
20260505160543 68 360 8.0 15.0 0.00 0.00 0.00 45 976.6
20260505153047 67 360 7.0 17.0 0.00 0.00 0.00 45 976.5
20260505152542 68 360 10.0 17.0 0.00 0.00 0.00 46 976.6
20260505152042 68 360 8.0 15.0 0.00 0.00 0.00 46 976.7
20260505151545 68 360 10.0 14.0 0.00 0.00 0.00 46 976.7
20260505151044 68 360 8.0 14.0 0.00 0.00 0.00 47 976.5
20260505150543 68 360 7.0 15.0 0.00 0.00 0.00 46 976.4
20260505140542 66 360 8.0 16.0 0.00 0.00 0.00 57 976.1
20260505124548 66 360 4.0 12.0 0.00 0.00 0.00 57 975.3
20260505124043 66 360 7.0 12.0 0.00 0.00 0.00 56 975.2
20260505123542 66 360 5.0 12.0 0.00 0.00 0.00 56 975.1
20260505123042 66 360 3.0 12.0 0.00 0.00 0.00 56 975.1
20260505122542 66 360 4.0 14.0 0.00 0.00 0.00 56 975.1
20260505122042 66 360 3.0 8.0 0.00 0.00 0.00 55 975.2
20260505121543 66 360 2.0 8.0 0.00 0.00 0.00 56 975.3
20260505121043 66 360 3.0 6.0 0.00 0.00 0.00 56 975.3
20260505120543 66 360 1.0 9.0 0.00 0.00 0.00 56 975.2
20260505120049 66 360 4.0 9.0 0.00 0.00 0.00 56 975.1
20260505115544 66 360 1.0 4.0 0.00 0.00 0.00 56 975.1
20260505115042 66 360 1.0 5.0 0.00 0.00 0.00 55 975.1
20260505114546 66 360 2.0 5.0 0.00 0.00 0.00 56 975.0
20260505114042 66 360 1.0 6.0 0.00 0.00 0.00 56 975.0
20260505113547 66 360 2.0 6.0 0.00 0.00 0.00 55 974.9
20260505113042 66 360 2.0 4.0 0.00 0.00 0.00 54 974.9
20260505112545 66 360 1.0 5.0 0.00 0.00 0.00 54 974.9
20260505112043 66 360 2.0 6.0 0.00 0.00 0.00 54 974.9
20260505111543 66 360 2.0 6.0 0.00 0.00 0.00 54 974.8
20260505111044 67 360 3.0 6.0 0.00 0.00 0.00 54 974.8
20260505110543 67 360 3.0 5.0 0.00 0.00 0.00 53 974.8
20260505102042 68 360 4.0 15.0 0.00 0.00 0.00 52 975.3
20260505101544 68 360 5.0 15.0 0.00 0.00 0.00 51 975.3
20260505101042 68 360 3.0 13.0 0.00 0.00 0.00 50 975.4
20260505100543 68 360 6.0 15.0 0.00 0.00 0.00 50 975.3
20260505100043 68 360 8.0 17.0 0.00 0.00 0.00 49 975.3
20260505095542 68 360 7.0 17.0 0.00 0.00 0.00 49 975.4
20260505095042 68 360 4.0 18.0 0.00 0.00 0.00 48 975.6
20260505094543 69 360 11.0 18.0 0.00 0.00 0.00 48 975.7
20260505094042 69 360 10.0 17.0 0.00 0.00 0.00 48 975.6
20260505093542 69 360 10.0 18.0 0.00 0.00 0.00 48 975.8
20260505093043 69 360 9.0 18.0 0.00 0.00 0.00 47 975.8
20260505092546 69 360 6.0 17.0 0.00 0.00 0.00 46 975.8
20260505092043 69 360 10.0 17.0 0.00 0.00 0.00 46 975.7
20260505091542 69 360 8.0 18.0 0.00 0.00 0.00 45 975.8
20260505091042 69 360 10.0 19.0 0.00 0.00 0.00 45 975.8
20260505090542 69 360 11.0 21.0 0.00 0.00 0.00 45 975.8
20260505090047 70 360 12.0 18.0 0.00 0.00 0.00 45 975.6
20260505085543 70 360 6.0 19.0 0.00 0.00 0.00 44 975.5
20260505085044 70 360 11.0 19.0 0.00 0.00 0.00 44 975.6
20260505084547 70 360 8.0 18.0 0.00 0.00 0.00 44 975.7
20260505084042 70 360 11.0 18.0 0.00 0.00 0.00 43 975.9
20260505083542 70 360 6.0 16.0 0.00 0.00 0.00 43 975.8
20260505083042 70 360 8.0 18.0 0.00 0.00 0.00 42 975.9
20260505082542 70 360 10.0 19.0 0.00 0.00 0.00 41 976.0
20260505082042 70 360 12.0 19.0 0.00 0.00 0.00 41 976.2
20260505081543 71 360 9.0 19.0 0.00 0.00 0.00 41 976.2
20260505081043 71 360 7.0 15.0 0.00 0.00 0.00 41 976.2
20260505080545 71 360 8.0 15.0 0.00 0.00 0.00 40 976.2
20260505080052 71 360 8.0 17.0 0.00 0.00 0.00 40 976.2
20260505075545 71 360 7.0 17.0 0.00 0.00 0.00 40 976.1
20260505075042 71 360 8.0 16.0 0.00 0.00 0.00 40 976.0
20260505074543 71 360 9.0 19.0 0.00 0.00 0.00 39 976.1
20260505074043 71 360 10.0 19.0 0.00 0.00 0.00 39 976.3
20260505073542 71 360 9.0 17.0 0.00 0.00 0.00 39 976.2
20260505073046 71 360 10.0 17.0 0.00 0.00 0.00 39 976.2
20260505072543 72 360 8.0 12.0 0.00 0.00 0.00 38 975.9
20260505072043 72 360 7.0 13.0 0.00 0.00 0.00 38 975.9
20260505071543 72 360 7.0 14.0 0.00 0.00 0.00 38 975.8
20260505071042 72 360 4.0 14.0 0.00 0.00 0.00 38 976.0
20260505070542 72 360 6.0 15.0 0.00 0.00 0.00 38 976.0
20260505070051 72 360 7.0 15.0 0.00 0.00 0.00 38 975.9
20260505065543 72 360 10.0 14.0 0.00 0.00 0.00 37 975.9
20260505065043 72 360 7.0 13.0 0.00 0.00 0.00 37 976.0
20260505064542 73 360 9.0 13.0 0.00 0.00 0.00 37 976.2
20260505064043 73 360 6.0 13.0 0.00 0.00 0.00 37 976.1
20260505063542 73 360 9.0 11.0 0.00 0.00 0.00 38 976.1
20260505063057 73 360 5.0 10.0 0.00 0.00 0.00 38 976.0
20260505062546 73 360 7.0 10.0 0.00 0.00 0.00 39 975.9
20260505062042 73 360 3.0 9.0 0.00 0.00 0.00 41 975.9
20260505061544 73 360 5.0 9.0 0.00 0.00 0.00 42 975.7
20260505061047 73 360 5.0 9.0 0.00 0.00 0.00 42 975.7
20260505060542 73 360 5.0 9.0 0.00 0.00 0.00 42 975.8
20260505060043 73 360 4.0 9.0 0.00 0.00 0.00 42 975.6
20260505055542 73 360 4.0 8.0 0.00 0.00 0.00 42 975.7
20260505055043 73 360 3.0 9.0 0.00 0.00 0.00 42 975.6
20260505054543 73 360 5.0 11.0 0.00 0.00 0.00 42 975.5
20260505054042 73 360 7.0 11.0 0.00 0.00 0.00 42 975.6
20260505053542 73 360 4.0 10.0 0.00 0.00 0.00 42 975.6
20260505053052 73 360 3.0 6.0 0.00 0.00 0.00 41 975.7
20260505052542 73 360 0.0 5.0 0.00 0.00 0.00 41 975.8
20260505052044 73 360 3.0 6.0 0.00 0.00 0.00 41 976.0
20260505051542 74 360 2.0 10.0 0.00 0.00 0.00 41 975.9
20260505051043 73 360 6.0 10.0 0.00 0.00 0.00 41 976.1
20260505050543 73 360 2.0 9.0 0.00 0.00 0.00 41 976.0
20260505041553 73 360 1.0 3.0 0.00 0.00 0.00 43 976.1
20260505041043 73 360 0.0 2.0 0.00 0.00 0.00 42 975.9
20260505040542 73 360 0.0 4.0 0.00 0.00 0.00 42 976.0
20260505040051 73 360 0.0 4.0 0.00 0.00 0.00 41 976.0
20260505035542 73 360 1.0 4.0 0.00 0.00 0.00 41 975.9
20260505035044 73 360 2.0 4.0 0.00 0.00 0.00 41 976.1
20260505034542 73 360 2.0 4.0 0.00 0.00 0.00 41 976.0
20260505034044 73 360 2.0 4.0 0.00 0.00 0.00 41 975.9